Location: Recife
(8.0585°S, 34.8848°W)
Time: 11:12:10
(UTC-03:00)

Explorer 7 - Pass Details

Date: 16 April 2026
Orbit: 427 x 536 km, 50.2° (Epoch: 14 May)

Event Time Altitude Azimuth Distance (km) Brightness Sun altitude
Rises 11:33:08 0° 204° (SSW) 2,533 10.0 71.4°
Reaches altitude 10° 11:35:25 10° 193° (SSW) 1,672 9.2 71.2°
Maximum altitude 11:38:52 33° 128° (SE) 863 8.1 71.0°
Drops below altitude 10° 11:42:24 10° 63° (ENE) 1,721 9.5 70.8°
Sets 11:44:47 0° 54° (NE) 2,621 10.4 70.6°
